Date_Time,Julian_Date,Latitude,Longitude,Instrument_Depth,Water_Salinity
(yyyy-mm-dd hh:mn:ss UTC),(JD),(+ deg. North),(+ deg. East),(m),(ppt)
1982-03-14 18:30:00 UTC,2445043.270833,29.6650,-93.4789,0073,28.4000
1982-03-14 19:00:00 UTC,2445043.291667,29.6650,-93.4789,0073,28.7000
1982-03-14 19:30:00 UTC,2445043.312500,29.6650,-93.4789,0073,29.2000
1982-03-14 20:00:00 UTC,2445043.333333,29.6650,-93.4789,0073,29.3000
1982-03-14 20:30:00 UTC,2445043.354167,29.6650,-93.4789,0073,29.0000
1982-03-14 21:00:00 UTC,2445043.375000,29.6650,-93.4789,0073,28.6000
1982-03-14 21:30:00 UTC,2445043.395833,29.6650,-93.4789,0073,28.5000
1982-03-14 22:00:00 UTC,2445043.416667,29.6650,-93.4789,0073,28.5000
1982-03-14 22:30:00 UTC,2445043.437500,29.6650,-93.4789,0073,28.6000
1982-03-14 23:00:00 UTC,2445043.458333,29.6650,-93.4789,0073,28.8000
1982-03-14 23:30:00 UTC,2445043.479167,29.6650,-93.4789,0073,28.8000
1982-03-15 00:00:00 UTC,2445043.500000,29.6650,-93.4789,0073,28.6000
1982-03-15 00:30:00 UTC,2445043.520833,29.6650,-93.4789,0073,28.6000
1982-03-15 01:00:00 UTC,2445043.541667,29.6650,-93.4789,0073,28.7000
1982-03-15 01:30:00 UTC,2445043.562500,29.6650,-93.4789,0073,28.8000
1982-03-15 02:00:00 UTC,2445043.583333,29.6650,-93.4789,0073,28.8000
1982-03-15 02:30:00 UTC,2445043.604167,29.6650,-93.4789,0073,28.7000
1982-03-15 03:00:00 UTC,2445043.625000,29.6650,-93.4789,0073,28.6000
1982-03-15 03:30:00 UTC,2445043.645833,29.6650,-93.4789,0073,28.5000
1982-03-15 04:00:00 UTC,2445043.666667,29.6650,-93.4789,0073,28.8000
1982-03-15 04:30:00 UTC,2445043.687500,29.6650,-93.4789,0073,28.9000
1982-03-15 05:00:00 UTC,2445043.708333,29.6650,-93.4789,0073,28.6000
1982-03-15 05:30:00 UTC,2445043.729167,29.6650,-93.4789,0073,28.4000
1982-03-15 06:00:00 UTC,2445043.750000,29.6650,-93.4789,0073,28.5000
1982-03-15 06:30:00 UTC,2445043.770833,29.6650,-93.4789,0073,28.5000
1982-03-15 07:00:00 UTC,2445043.791667,29.6650,-93.4789,0073,28.6000
1982-03-15 07:30:00 UTC,2445043.812500,29.6650,-93.4789,0073,28.7000
1982-03-15 08:00:00 UTC,2445043.833333,29.6650,-93.4789,0073,28.9000
1982-03-15 08:30:00 UTC,2445043.854167,29.6650,-93.4789,0073,29.2000
1982-03-15 09:00:00 UTC,2445043.875000,29.6650,-93.4789,0073,29.3000
1982-03-15 09:30:00 UTC,2445043.895833,29.6650,-93.4789,0073,29.2000
1982-03-15 10:00:00 UTC,2445043.916667,29.6650,-93.4789,0073,29.1000
1982-03-15 10:30:00 UTC,2445043.937500,29.6650,-93.4789,0073,29.3000
1982-03-15 11:00:00 UTC,2445043.958333,29.6650,-93.4789,0073,29.5000
1982-03-15 11:30:00 UTC,2445043.979167,29.6650,-93.4789,0073,29.8000
1982-03-15 12:00:00 UTC,2445044.000000,29.6650,-93.4789,0073,30.1000
1982-03-15 12:30:00 UTC,2445044.020833,29.6650,-93.4789,0073,30.3000
1982-03-15 13:00:00 UTC,2445044.041667,29.6650,-93.4789,0073,30.5000
1982-03-15 13:30:00 UTC,2445044.062500,29.6650,-93.4789,0073,30.5000
1982-03-15 14:00:00 UTC,2445044.083333,29.6650,-93.4789,0073,30.4000
1982-03-15 14:30:00 UTC,2445044.104167,29.6650,-93.4789,0073,30.4000
1982-03-15 15:00:00 UTC,2445044.125000,29.6650,-93.4789,0073,30.5000
1982-03-15 15:30:00 UTC,2445044.145833,29.6650,-93.4789,0073,30.6000
1982-03-15 16:00:00 UTC,2445044.166667,29.6650,-93.4789,0073,30.7000
1982-03-15 16:30:00 UTC,2445044.187500,29.6650,-93.4789,0073,30.7000
1982-03-15 17:00:00 UTC,2445044.208333,29.6650,-93.4789,0073,30.7000
1982-03-15 17:30:00 UTC,2445044.229167,29.6650,-93.4789,0073,30.7000
1982-03-15 18:00:00 UTC,2445044.250000,29.6650,-93.4789,0073,30.6000
1982-03-15 18:30:00 UTC,2445044.270833,29.6650,-93.4789,0073,30.5000
1982-03-15 19:00:00 UTC,2445044.291667,29.6650,-93.4789,0073,30.4000
1982-03-15 19:30:00 UTC,2445044.312500,29.6650,-93.4789,0073,30.4000
1982-03-15 20:00:00 UTC,2445044.333333,29.6650,-93.4789,0073,30.6000
1982-03-15 20:30:00 UTC,2445044.354167,29.6650,-93.4789,0073,30.7000
1982-03-15 21:00:00 UTC,2445044.375000,29.6650,-93.4789,0073,30.5000
1982-03-15 21:30:00 UTC,2445044.395833,29.6650,-93.4789,0073,30.3000
1982-03-15 22:00:00 UTC,2445044.416667,29.6650,-93.4789,0073,30.3000
1982-03-15 22:30:00 UTC,2445044.437500,29.6650,-93.4789,0073,30.3000
1982-03-15 23:00:00 UTC,2445044.458333,29.6650,-93.4789,0073,30.4000
1982-03-15 23:30:00 UTC,2445044.479167,29.6650,-93.4789,0073,30.4000
1982-03-16 00:00:00 UTC,2445044.500000,29.6650,-93.4789,0073,30.4000
1982-03-16 00:30:00 UTC,2445044.520833,29.6650,-93.4789,0073,30.4000
1982-03-16 01:00:00 UTC,2445044.541667,29.6650,-93.4789,0073,30.4000
1982-03-16 01:30:00 UTC,2445044.562500,29.6650,-93.4789,0073,30.4000
1982-03-16 02:00:00 UTC,2445044.583333,29.6650,-93.4789,0073,30.3000
1982-03-16 02:30:00 UTC,2445044.604167,29.6650,-93.4789,0073,30.2000
1982-03-16 03:00:00 UTC,2445044.625000,29.6650,-93.4789,0073,30.1000
1982-03-16 03:30:00 UTC,2445044.645833,29.6650,-93.4789,0073,29.9000
1982-03-16 04:00:00 UTC,2445044.666667,29.6650,-93.4789,0073,29.7000
1982-03-16 04:30:00 UTC,2445044.687500,29.6650,-93.4789,0073,29.5000
1982-03-16 05:00:00 UTC,2445044.708333,29.6650,-93.4789,0073,29.5000
1982-03-16 05:30:00 UTC,2445044.729167,29.6650,-93.4789,0073,29.7000
1982-03-16 06:00:00 UTC,2445044.750000,29.6650,-93.4789,0073,29.9000
1982-03-16 06:30:00 UTC,2445044.770833,29.6650,-93.4789,0073,29.9000
1982-03-16 07:00:00 UTC,2445044.791667,29.6650,-93.4789,0073,29.9000
1982-03-16 07:30:00 UTC,2445044.812500,29.6650,-93.4789,0073,29.9000
1982-03-16 08:00:00 UTC,2445044.833333,29.6650,-93.4789,0073,29.5000
1982-03-16 08:30:00 UTC,2445044.854167,29.6650,-93.4789,0073,28.8000
1982-03-16 09:00:00 UTC,2445044.875000,29.6650,-93.4789,0073,28.6000
1982-03-16 09:30:00 UTC,2445044.895833,29.6650,-93.4789,0073,29.0000
1982-03-16 10:00:00 UTC,2445044.916667,29.6650,-93.4789,0073,29.4000
1982-03-16 10:30:00 UTC,2445044.937500,29.6650,-93.4789,0073,29.8000
1982-03-16 11:00:00 UTC,2445044.958333,29.6650,-93.4789,0073,30.0000
1982-03-16 11:30:00 UTC,2445044.979167,29.6650,-93.4789,0073,30.1000
1982-03-16 12:00:00 UTC,2445045.000000,29.6650,-93.4789,0073,30.2000
1982-03-16 12:30:00 UTC,2445045.020833,29.6650,-93.4789,0073,30.5000
1982-03-16 13:00:00 UTC,2445045.041667,29.6650,-93.4789,0073,30.7000
1982-03-16 13:30:00 UTC,2445045.062500,29.6650,-93.4789,0073,30.9000
1982-03-16 14:00:00 UTC,2445045.083333,29.6650,-93.4789,0073,31.0000
1982-03-16 14:30:00 UTC,2445045.104167,29.6650,-93.4789,0073,31.0000
1982-03-16 15:00:00 UTC,2445045.125000,29.6650,-93.4789,0073,31.0000
1982-03-16 15:30:00 UTC,2445045.145833,29.6650,-93.4789,0073,31.0000
1982-03-16 16:00:00 UTC,2445045.166667,29.6650,-93.4789,0073,31.0000
1982-03-16 16:30:00 UTC,2445045.187500,29.6650,-93.4789,0073,31.1000
1982-03-16 17:00:00 UTC,2445045.208333,29.6650,-93.4789,0073,31.1000
1982-03-16 17:30:00 UTC,2445045.229167,29.6650,-93.4789,0073,31.1000
1982-03-16 18:00:00 UTC,2445045.250000,29.6650,-93.4789,0073,31.1000
1982-03-16 18:30:00 UTC,2445045.270833,29.6650,-93.4789,0073,31.1000
1982-03-16 19:00:00 UTC,2445045.291667,29.6650,-93.4789,0073,31.1000
1982-03-16 19:30:00 UTC,2445045.312500,29.6650,-93.4789,0073,31.1000
1982-03-16 20:00:00 UTC,2445045.333333,29.6650,-93.4789,0073,31.0000
1982-03-16 20:30:00 UTC,2445045.354167,29.6650,-93.4789,0073,30.9000
1982-03-16 21:00:00 UTC,2445045.375000,29.6650,-93.4789,0073,30.8000
1982-03-16 21:30:00 UTC,2445045.395833,29.6650,-93.4789,0073,30.7000
1982-03-16 22:00:00 UTC,2445045.416667,29.6650,-93.4789,0073,30.4000
1982-03-16 22:30:00 UTC,2445045.437500,29.6650,-93.4789,0073,30.2000
1982-03-16 23:00:00 UTC,2445045.458333,29.6650,-93.4789,0073,30.1000
1982-03-16 23:30:00 UTC,2445045.479167,29.6650,-93.4789,0073,30.0000
1982-03-17 00:00:00 UTC,2445045.500000,29.6650,-93.4789,0073,29.8000
1982-03-17 00:30:00 UTC,2445045.520833,29.6650,-93.4789,0073,29.6000
1982-03-17 01:00:00 UTC,2445045.541667,29.6650,-93.4789,0073,29.4000
1982-03-17 01:30:00 UTC,2445045.562500,29.6650,-93.4789,0073,29.2000
1982-03-17 02:00:00 UTC,2445045.583333,29.6650,-93.4789,0073,29.0000
1982-03-17 02:30:00 UTC,2445045.604167,29.6650,-93.4789,0073,28.9000
1982-03-17 03:00:00 UTC,2445045.625000,29.6650,-93.4789,0073,28.9000
1982-03-17 03:30:00 UTC,2445045.645833,29.6650,-93.4789,0073,29.0000
1982-03-17 04:00:00 UTC,2445045.666667,29.6650,-93.4789,0073,29.2000
1982-03-17 04:30:00 UTC,2445045.687500,29.6650,-93.4789,0073,29.3000
1982-03-17 05:00:00 UTC,2445045.708333,29.6650,-93.4789,0073,29.4000
1982-03-17 05:30:00 UTC,2445045.729167,29.6650,-93.4789,0073,29.4000
1982-03-17 06:00:00 UTC,2445045.750000,29.6650,-93.4789,0073,29.4000
1982-03-17 06:30:00 UTC,2445045.770833,29.6650,-93.4789,0073,29.4000
1982-03-17 07:00:00 UTC,2445045.791667,29.6650,-93.4789,0073,29.5000
1982-03-17 07:30:00 UTC,2445045.812500,29.6650,-93.4789,0073,29.5000
1982-03-17 08:00:00 UTC,2445045.833333,29.6650,-93.4789,0073,29.5000
1982-03-17 08:30:00 UTC,2445045.854167,29.6650,-93.4789,0073,29.3000
1982-03-17 09:00:00 UTC,2445045.875000,29.6650,-93.4789,0073,29.2000
1982-03-17 09:30:00 UTC,2445045.895833,29.6650,-93.4789,0073,29.2000
1982-03-17 10:00:00 UTC,2445045.916667,29.6650,-93.4789,0073,28.9000
1982-03-17 10:30:00 UTC,2445045.937500,29.6650,-93.4789,0073,28.7000
1982-03-17 11:00:00 UTC,2445045.958333,29.6650,-93.4789,0073,28.8000
1982-03-17 11:30:00 UTC,2445045.979167,29.6650,-93.4789,0073,29.1000
1982-03-17 12:00:00 UTC,2445046.000000,29.6650,-93.4789,0073,29.4000
1982-03-17 12:30:00 UTC,2445046.020833,29.6650,-93.4789,0073,29.6000
1982-03-17 13:00:00 UTC,2445046.041667,29.6650,-93.4789,0073,29.6000
1982-03-17 13:30:00 UTC,2445046.062500,29.6650,-93.4789,0073,29.6000
1982-03-17 14:00:00 UTC,2445046.083333,29.6650,-93.4789,0073,29.5000
1982-03-17 14:30:00 UTC,2445046.104167,29.6650,-93.4789,0073,29.2000
1982-03-17 15:00:00 UTC,2445046.125000,29.6650,-93.4789,0073,29.0000
1982-03-17 15:30:00 UTC,2445046.145833,29.6650,-93.4789,0073,29.0000
1982-03-17 16:00:00 UTC,2445046.166667,29.6650,-93.4789,0073,29.1000
1982-03-17 16:30:00 UTC,2445046.187500,29.6650,-93.4789,0073,29.2000
1982-03-17 17:00:00 UTC,2445046.208333,29.6650,-93.4789,0073,29.3000
1982-03-17 17:30:00 UTC,2445046.229167,29.6650,-93.4789,0073,29.3000
1982-03-17 18:00:00 UTC,2445046.250000,29.6650,-93.4789,0073,29.3000
1982-03-17 18:30:00 UTC,2445046.270833,29.6650,-93.4789,0073,29.3000
1982-03-17 19:00:00 UTC,2445046.291667,29.6650,-93.4789,0073,29.3000
1982-03-17 19:30:00 UTC,2445046.312500,29.6650,-93.4789,0073,29.2000
1982-03-17 20:00:00 UTC,2445046.333333,29.6650,-93.4789,0073,29.2000
1982-03-17 20:30:00 UTC,2445046.354167,29.6650,-93.4789,0073,29.1000
1982-03-17 21:00:00 UTC,2445046.375000,29.6650,-93.4789,0073,29.2000
1982-03-17 21:30:00 UTC,2445046.395833,29.6650,-93.4789,0073,29.2000
1982-03-17 22:00:00 UTC,2445046.416667,29.6650,-93.4789,0073,29.3000
1982-03-17 22:30:00 UTC,2445046.437500,29.6650,-93.4789,0073,29.4000
1982-03-17 23:00:00 UTC,2445046.458333,29.6650,-93.4789,0073,29.4000
1982-03-17 23:30:00 UTC,2445046.479167,29.6650,-93.4789,0073,29.4000
1982-03-18 00:00:00 UTC,2445046.500000,29.6650,-93.4789,0073,29.4000
1982-03-18 00:30:00 UTC,2445046.520833,29.6650,-93.4789,0073,29.3000
1982-03-18 01:00:00 UTC,2445046.541667,29.6650,-93.4789,0073,29.3000
1982-03-18 01:30:00 UTC,2445046.562500,29.6650,-93.4789,0073,29.3000
1982-03-18 02:00:00 UTC,2445046.583333,29.6650,-93.4789,0073,29.2000
1982-03-18 02:30:00 UTC,2445046.604167,29.6650,-93.4789,0073,29.2000
1982-03-18 03:00:00 UTC,2445046.625000,29.6650,-93.4789,0073,29.2000
1982-03-18 03:30:00 UTC,2445046.645833,29.6650,-93.4789,0073,29.1000
1982-03-18 04:00:00 UTC,2445046.666667,29.6650,-93.4789,0073,29.1000
1982-03-18 04:30:00 UTC,2445046.687500,29.6650,-93.4789,0073,29.0000
1982-03-18 05:00:00 UTC,2445046.708333,29.6650,-93.4789,0073,28.9000
1982-03-18 05:30:00 UTC,2445046.729167,29.6650,-93.4789,0073,28.8000
1982-03-18 06:00:00 UTC,2445046.750000,29.6650,-93.4789,0073,29.0000
1982-03-18 06:30:00 UTC,2445046.770833,29.6650,-93.4789,0073,29.0000
1982-03-18 07:00:00 UTC,2445046.791667,29.6650,-93.4789,0073,28.7000
1982-03-18 07:30:00 UTC,2445046.812500,29.6650,-93.4789,0073,28.5000
1982-03-18 08:00:00 UTC,2445046.833333,29.6650,-93.4789,0073,28.5000
1982-03-18 08:30:00 UTC,2445046.854167,29.6650,-93.4789,0073,28.6000
1982-03-18 09:00:00 UTC,2445046.875000,29.6650,-93.4789,0073,28.7000
1982-03-18 09:30:00 UTC,2445046.895833,29.6650,-93.4789,0073,28.7000
1982-03-18 10:00:00 UTC,2445046.916667,29.6650,-93.4789,0073,28.7000
1982-03-18 10:30:00 UTC,2445046.937500,29.6650,-93.4789,0073,28.7000
1982-03-18 11:00:00 UTC,2445046.958333,29.6650,-93.4789,0073,28.7000
1982-03-18 11:30:00 UTC,2445046.979167,29.6650,-93.4789,0073,28.6000
1982-03-18 12:00:00 UTC,2445047.000000,29.6650,-93.4789,0073,28.5000
1982-03-18 12:30:00 UTC,2445047.020833,29.6650,-93.4789,0073,28.5000
1982-03-18 13:00:00 UTC,2445047.041667,29.6650,-93.4789,0073,28.8000
1982-03-18 13:30:00 UTC,2445047.062500,29.6650,-93.4789,0073,29.0000
1982-03-18 14:00:00 UTC,2445047.083333,29.6650,-93.4789,0073,28.6000
1982-03-18 14:30:00 UTC,2445047.104167,29.6650,-93.4789,0073,27.9000
1982-03-18 15:00:00 UTC,2445047.125000,29.6650,-93.4789,0073,27.5000
1982-03-18 15:30:00 UTC,2445047.145833,29.6650,-93.4789,0073,27.4000
1982-03-18 16:00:00 UTC,2445047.166667,29.6650,-93.4789,0073,27.4000
1982-03-18 16:30:00 UTC,2445047.187500,29.6650,-93.4789,0073,27.5000
1982-03-18 17:00:00 UTC,2445047.208333,29.6650,-93.4789,0073,27.6000
1982-03-18 17:30:00 UTC,2445047.229167,29.6650,-93.4789,0073,27.6000
1982-03-18 18:00:00 UTC,2445047.250000,29.6650,-93.4789,0073,27.6000
1982-03-18 18:30:00 UTC,2445047.270833,29.6650,-93.4789,0073,27.7000
1982-03-18 19:00:00 UTC,2445047.291667,29.6650,-93.4789,0073,27.7000
1982-03-18 19:30:00 UTC,2445047.312500,29.6650,-93.4789,0073,27.7000
1982-03-18 20:00:00 UTC,2445047.333333,29.6650,-93.4789,0073,27.8000
1982-03-18 20:30:00 UTC,2445047.354167,29.6650,-93.4789,0073,27.7000
1982-03-18 21:00:00 UTC,2445047.375000,29.6650,-93.4789,0073,27.8000
1982-03-18 21:30:00 UTC,2445047.395833,29.6650,-93.4789,0073,27.7000
1982-03-18 22:00:00 UTC,2445047.416667,29.6650,-93.4789,0073,27.7000
1982-03-18 22:30:00 UTC,2445047.437500,29.6650,-93.4789,0073,27.7000
1982-03-18 23:00:00 UTC,2445047.458333,29.6650,-93.4789,0073,27.6000
1982-03-18 23:30:00 UTC,2445047.479167,29.6650,-93.4789,0073,27.7000
1982-03-19 00:00:00 UTC,2445047.500000,29.6650,-93.4789,0073,27.6000
1982-03-19 00:30:00 UTC,2445047.520833,29.6650,-93.4789,0073,27.6000
1982-03-19 01:00:00 UTC,2445047.541667,29.6650,-93.4789,0073,27.6000
1982-03-19 01:30:00 UTC,2445047.562500,29.6650,-93.4789,0073,27.3000
1982-03-19 02:00:00 UTC,2445047.583333,29.6650,-93.4789,0073,27.0000
1982-03-19 02:30:00 UTC,2445047.604167,29.6650,-93.4789,0073,26.7000
1982-03-19 03:00:00 UTC,2445047.625000,29.6650,-93.4789,0073,26.5000
1982-03-19 03:30:00 UTC,2445047.645833,29.6650,-93.4789,0073,26.3000
1982-03-19 04:00:00 UTC,2445047.666667,29.6650,-93.4789,0073,26.3000
1982-03-19 04:30:00 UTC,2445047.687500,29.6650,-93.4789,0073,26.4000
1982-03-19 05:00:00 UTC,2445047.708333,29.6650,-93.4789,0073,26.3000
1982-03-19 05:30:00 UTC,2445047.729167,29.6650,-93.4789,0073,26.1000
1982-03-19 06:00:00 UTC,2445047.750000,29.6650,-93.4789,0073,26.1000
1982-03-19 06:30:00 UTC,2445047.770833,29.6650,-93.4789,0073,26.3000
1982-03-19 07:00:00 UTC,2445047.791667,29.6650,-93.4789,0073,26.3000
1982-03-19 07:30:00 UTC,2445047.812500,29.6650,-93.4789,0073,26.1000
1982-03-19 08:00:00 UTC,2445047.833333,29.6650,-93.4789,0073,26.1000
1982-03-19 08:30:00 UTC,2445047.854167,29.6650,-93.4789,0073,26.3000
1982-03-19 09:00:00 UTC,2445047.875000,29.6650,-93.4789,0073,26.4000
1982-03-19 09:30:00 UTC,2445047.895833,29.6650,-93.4789,0073,26.4000
1982-03-19 10:00:00 UTC,2445047.916667,29.6650,-93.4789,0073,26.5000
1982-03-19 10:30:00 UTC,2445047.937500,29.6650,-93.4789,0073,26.7000
1982-03-19 11:00:00 UTC,2445047.958333,29.6650,-93.4789,0073,26.7000
1982-03-19 11:30:00 UTC,2445047.979167,29.6650,-93.4789,0073,26.5000
1982-03-19 12:00:00 UTC,2445048.000000,29.6650,-93.4789,0073,26.2000
1982-03-19 12:30:00 UTC,2445048.020833,29.6650,-93.4789,0073,25.8000
1982-03-19 13:00:00 UTC,2445048.041667,29.6650,-93.4789,0073,25.8000
1982-03-19 13:30:00 UTC,2445048.062500,29.6650,-93.4789,0073,26.4000
1982-03-19 14:00:00 UTC,2445048.083333,29.6650,-93.4789,0073,26.6000
1982-03-19 14:30:00 UTC,2445048.104167,29.6650,-93.4789,0073,26.5000
1982-03-19 15:00:00 UTC,2445048.125000,29.6650,-93.4789,0073,26.5000
1982-03-19 15:30:00 UTC,2445048.145833,29.6650,-93.4789,0073,26.6000
1982-03-19 16:00:00 UTC,2445048.166667,29.6650,-93.4789,0073,26.8000
1982-03-19 16:30:00 UTC,2445048.187500,29.6650,-93.4789,0073,26.9000
1982-03-19 17:00:00 UTC,2445048.208333,29.6650,-93.4789,0073,27.0000
1982-03-19 17:30:00 UTC,2445048.229167,29.6650,-93.4789,0073,27.3000
1982-03-19 18:00:00 UTC,2445048.250000,29.6650,-93.4789,0073,27.6000
1982-03-19 18:30:00 UTC,2445048.270833,29.6650,-93.4789,0073,27.8000
1982-03-19 19:00:00 UTC,2445048.291667,29.6650,-93.4789,0073,28.2000
1982-03-19 19:30:00 UTC,2445048.312500,29.6650,-93.4789,0073,28.6000
1982-03-19 20:00:00 UTC,2445048.333333,29.6650,-93.4789,0073,28.7000
1982-03-19 20:30:00 UTC,2445048.354167,29.6650,-93.4789,0073,28.7000
1982-03-19 21:00:00 UTC,2445048.375000,29.6650,-93.4789,0073,28.8000
1982-03-19 21:30:00 UTC,2445048.395833,29.6650,-93.4789,0073,28.9000
1982-03-19 22:00:00 UTC,2445048.416667,29.6650,-93.4789,0073,29.0000
1982-03-19 22:30:00 UTC,2445048.437500,29.6650,-93.4789,0073,29.3000
1982-03-19 23:00:00 UTC,2445048.458333,29.6650,-93.4789,0073,29.3000
1982-03-19 23:30:00 UTC,2445048.479167,29.6650,-93.4789,0073,29.0000
1982-03-20 00:00:00 UTC,2445048.500000,29.6650,-93.4789,0073,28.8000
1982-03-20 00:30:00 UTC,2445048.520833,29.6650,-93.4789,0073,28.7000
1982-03-20 01:00:00 UTC,2445048.541667,29.6650,-93.4789,0073,28.8000
1982-03-20 01:30:00 UTC,2445048.562500,29.6650,-93.4789,0073,28.8000
1982-03-20 02:00:00 UTC,2445048.583333,29.6650,-93.4789,0073,28.6000
1982-03-20 02:30:00 UTC,2445048.604167,29.6650,-93.4789,0073,28.5000
1982-03-20 03:00:00 UTC,2445048.625000,29.6650,-93.4789,0073,28.4000
1982-03-20 03:30:00 UTC,2445048.645833,29.6650,-93.4789,0073,28.1000
1982-03-20 04:00:00 UTC,2445048.666667,29.6650,-93.4789,0073,27.7000
1982-03-20 04:30:00 UTC,2445048.687500,29.6650,-93.4789,0073,27.5000
1982-03-20 05:00:00 UTC,2445048.708333,29.6650,-93.4789,0073,27.5000
1982-03-20 05:30:00 UTC,2445048.729167,29.6650,-93.4789,0073,27.4000
1982-03-20 06:00:00 UTC,2445048.750000,29.6650,-93.4789,0073,27.2000
1982-03-20 06:30:00 UTC,2445048.770833,29.6650,-93.4789,0073,27.0000
1982-03-20 07:00:00 UTC,2445048.791667,29.6650,-93.4789,0073,26.9000
1982-03-20 07:30:00 UTC,2445048.812500,29.6650,-93.4789,0073,27.0000
1982-03-20 08:00:00 UTC,2445048.833333,29.6650,-93.4789,0073,27.4000
1982-03-20 08:30:00 UTC,2445048.854167,29.6650,-93.4789,0073,28.0000
1982-03-20 09:00:00 UTC,2445048.875000,29.6650,-93.4789,0073,28.2000
1982-03-20 09:30:00 UTC,2445048.895833,29.6650,-93.4789,0073,27.8000
1982-03-20 10:00:00 UTC,2445048.916667,29.6650,-93.4789,0073,27.4000
1982-03-20 10:30:00 UTC,2445048.937500,29.6650,-93.4789,0073,27.5000
1982-03-20 11:00:00 UTC,2445048.958333,29.6650,-93.4789,0073,27.6000
1982-03-20 11:30:00 UTC,2445048.979167,29.6650,-93.4789,0073,27.5000
1982-03-20 12:00:00 UTC,2445049.000000,29.6650,-93.4789,0073,27.4000
1982-03-20 12:30:00 UTC,2445049.020833,29.6650,-93.4789,0073,27.6000
1982-03-20 13:00:00 UTC,2445049.041667,29.6650,-93.4789,0073,28.0000
1982-03-20 13:30:00 UTC,2445049.062500,29.6650,-93.4789,0073,28.1000
1982-03-20 14:00:00 UTC,2445049.083333,29.6650,-93.4789,0073,28.0000
1982-03-20 14:30:00 UTC,2445049.104167,29.6650,-93.4789,0073,28.0000
1982-03-20 15:00:00 UTC,2445049.125000,29.6650,-93.4789,0073,28.0000
1982-03-20 15:30:00 UTC,2445049.145833,29.6650,-93.4789,0073,28.1000
1982-03-20 16:00:00 UTC,2445049.166667,29.6650,-93.4789,0073,28.2000
1982-03-20 16:30:00 UTC,2445049.187500,29.6650,-93.4789,0073,28.4000
1982-03-20 17:00:00 UTC,2445049.208333,29.6650,-93.4789,0073,28.7000
1982-03-20 17:30:00 UTC,2445049.229167,29.6650,-93.4789,0073,29.0000
1982-03-20 18:00:00 UTC,2445049.250000,29.6650,-93.4789,0073,29.1000
1982-03-20 18:30:00 UTC,2445049.270833,29.6650,-93.4789,0073,29.4000
1982-03-20 19:00:00 UTC,2445049.291667,29.6650,-93.4789,0073,29.6000
1982-03-20 19:30:00 UTC,2445049.312500,29.6650,-93.4789,0073,29.5000
1982-03-20 20:00:00 UTC,2445049.333333,29.6650,-93.4789,0073,29.5000
1982-03-20 20:30:00 UTC,2445049.354167,29.6650,-93.4789,0073,29.4000
1982-03-20 21:00:00 UTC,2445049.375000,29.6650,-93.4789,0073,29.5000
1982-03-20 21:30:00 UTC,2445049.395833,29.6650,-93.4789,0073,29.7000
1982-03-20 22:00:00 UTC,2445049.416667,29.6650,-93.4789,0073,29.8000
1982-03-20 22:30:00 UTC,2445049.437500,29.6650,-93.4789,0073,30.1000
1982-03-20 23:00:00 UTC,2445049.458333,29.6650,-93.4789,0073,30.1000
1982-03-20 23:30:00 UTC,2445049.479167,29.6650,-93.4789,0073,29.9000
1982-03-21 00:00:00 UTC,2445049.500000,29.6650,-93.4789,0073,29.7000
1982-03-21 00:30:00 UTC,2445049.520833,29.6650,-93.4789,0073,29.5000
1982-03-21 01:00:00 UTC,2445049.541667,29.6650,-93.4789,0073,29.3000
1982-03-21 01:30:00 UTC,2445049.562500,29.6650,-93.4789,0073,29.0000
1982-03-21 02:00:00 UTC,2445049.583333,29.6650,-93.4789,0073,28.4000
1982-03-21 02:30:00 UTC,2445049.604167,29.6650,-93.4789,0073,27.9000
1982-03-21 03:00:00 UTC,2445049.625000,29.6650,-93.4789,0073,28.1000
1982-03-21 03:30:00 UTC,2445049.645833,29.6650,-93.4789,0073,28.6000
1982-03-21 04:00:00 UTC,2445049.666667,29.6650,-93.4789,0073,28.9000
1982-03-21 04:30:00 UTC,2445049.687500,29.6650,-93.4789,0073,28.7000
1982-03-21 05:00:00 UTC,2445049.708333,29.6650,-93.4789,0073,28.2000
1982-03-21 05:30:00 UTC,2445049.729167,29.6650,-93.4789,0073,27.9000
1982-03-21 06:00:00 UTC,2445049.750000,29.6650,-93.4789,0073,27.8000
1982-03-21 06:30:00 UTC,2445049.770833,29.6650,-93.4789,0073,27.7000
1982-03-21 07:00:00 UTC,2445049.791667,29.6650,-93.4789,0073,27.6000
1982-03-21 07:30:00 UTC,2445049.812500,29.6650,-93.4789,0073,27.3000
1982-03-21 08:00:00 UTC,2445049.833333,29.6650,-93.4789,0073,27.3000
1982-03-21 08:30:00 UTC,2445049.854167,29.6650,-93.4789,0073,27.9000
1982-03-21 09:00:00 UTC,2445049.875000,29.6650,-93.4789,0073,28.1000
1982-03-21 09:30:00 UTC,2445049.895833,29.6650,-93.4789,0073,28.2000
1982-03-21 10:00:00 UTC,2445049.916667,29.6650,-93.4789,0073,28.2000
1982-03-21 10:30:00 UTC,2445049.937500,29.6650,-93.4789,0073,28.2000
1982-03-21 11:00:00 UTC,2445049.958333,29.6650,-93.4789,0073,27.9000
1982-03-21 11:30:00 UTC,2445049.979167,29.6650,-93.4789,0073,27.6000
1982-03-21 12:00:00 UTC,2445050.000000,29.6650,-93.4789,0073,27.6000
1982-03-21 12:30:00 UTC,2445050.020833,29.6650,-93.4789,0073,27.8000
1982-03-21 13:00:00 UTC,2445050.041667,29.6650,-93.4789,0073,27.8000
1982-03-21 13:30:00 UTC,2445050.062500,29.6650,-93.4789,0073,27.7000
1982-03-21 14:00:00 UTC,2445050.083333,29.6650,-93.4789,0073,27.5000
1982-03-21 14:30:00 UTC,2445050.104167,29.6650,-93.4789,0073,27.5000
1982-03-21 15:00:00 UTC,2445050.125000,29.6650,-93.4789,0073,27.6000
1982-03-21 15:30:00 UTC,2445050.145833,29.6650,-93.4789,0073,27.7000
1982-03-21 16:00:00 UTC,2445050.166667,29.6650,-93.4789,0073,27.7000
1982-03-21 16:30:00 UTC,2445050.187500,29.6650,-93.4789,0073,27.9000
1982-03-21 17:00:00 UTC,2445050.208333,29.6650,-93.4789,0073,28.1000
1982-03-21 17:30:00 UTC,2445050.229167,29.6650,-93.4789,0073,28.4000
1982-03-21 18:00:00 UTC,2445050.250000,29.6650,-93.4789,0073,28.5000
1982-03-21 18:30:00 UTC,2445050.270833,29.6650,-93.4789,0073,28.5000
1982-03-21 19:00:00 UTC,2445050.291667,29.6650,-93.4789,0073,28.5000
1982-03-21 19:30:00 UTC,2445050.312500,29.6650,-93.4789,0073,28.6000
1982-03-21 20:00:00 UTC,2445050.333333,29.6650,-93.4789,0073,28.8000
1982-03-21 20:30:00 UTC,2445050.354167,29.6650,-93.4789,0073,28.9000
1982-03-21 21:00:00 UTC,2445050.375000,29.6650,-93.4789,0073,28.7000
1982-03-21 21:30:00 UTC,2445050.395833,29.6650,-93.4789,0073,28.6000
1982-03-21 22:00:00 UTC,2445050.416667,29.6650,-93.4789,0073,28.8000
1982-03-21 22:30:00 UTC,2445050.437500,29.6650,-93.4789,0073,29.1000